This demonstration page uses our WeatherBlox Daily Observations layout. Learn more.

Left ArrowRight Arrow

53.62937, 11.41316

Hourly Observations for November 1, 2020

Temp ( °F °C ) Dew Point ( °F °C ) Humidity (%) Winds ( mph kmh ) Pressure ( in mb ) Visibility ( mi km ) Precip ( " mm )
8:20 am 08:20 Mostly Sunny 52 11 52 11 100 100 S 5 7 29.89 1012 30 48 N/A
8:50 am 08:50 Mostly Sunny 52 11 52 11 100 100 S 6 9 29.89 1012 7 11 N/A
9:20 am 09:20 Mostly Sunny 52 11 52 11 100 100 S 7 11 29.89 1012 7 11 N/A
9:50 am 09:50 Mostly Sunny 54 12 50 10 88 88 S 7 11 29.89 1012 7 11 N/A
10:20 am 10:20 Mostly Sunny 55 13 52 11 88 88 S 8 13 29.88 1012 7 11 N/A
10:50 am 10:50 Mostly Sunny 55 13 50 10 82 82 S 8 13 29.88 1012 30 48 N/A
11:20 am 11:20 Mostly Sunny 57 14 52 11 82 82 S 8 13 29.86 1011 30 48 N/A
11:50 am 11:50 Partly Cloudy 57 14 48 9 72 72 S 9 15 29.86 1011 30 48 N/A
12:20 pm 12:20 Mostly Sunny 57 14 46 8 67 67 S 12 19 29.83 1010 30 48 N/A
12:50 pm 12:50 Mostly Sunny 57 14 48 9 72 72 S 10 17 29.83 1010 30 48 N/A
1:20 pm 13:20 Partly Cloudy 57 14 46 8 67 67 S 13 20 29.83 1010 30 48 N/A
1:50 pm 13:50 Mostly Sunny 59 15 48 9 68 68 S 12 19 29.80 1009 30 48 N/A
2:20 pm 14:20 Mostly Sunny 57 14 48 9 72 72 SSE 9 15 29.80 1009 30 48 N/A
2:50 pm 14:50 Partly Cloudy 57 14 50 10 77 77 SSE 7 11 29.80 1009 30 48 N/A
3:20 pm 15:20 Mostly Sunny 59 15 52 11 77 77 SE 6 9 29.77 1008 7 11 N/A
3:50 pm 15:50 Mostly Sunny 59 15 52 11 77 77 SE 6 9 29.74 1007 7 11 N/A
4:20 pm 16:20 Mostly Cloudy 59 15 52 11 77 77 SE 6 9 29.74 1007 30 48 N/A
4:50 pm 16:50 Mostly Cloudy 59 15 52 11 77 77 SSE 7 11 29.74 1007 30 48 N/A
5:20 pm 17:20 Mostly Cloudy 59 15 52 11 77 77 SSE 8 13 29.74 1007 30 48 N/A
5:50 pm 17:50 Mostly Cloudy 59 15 52 11 77 77 SE 8 13 29.71 1006 30 48 N/A
6:20 pm 18:20 Mostly Cloudy 59 15 52 11 77 77 SSE 8 13 29.71 1006 30 48 N/A
6:50 pm 18:50 Mostly Cloudy 59 15 54 12 82 82 SSE 13 20 29.71 1006 30 48 N/A
7:20 pm 19:20 Mostly Cloudy 57 14 54 12 88 88 S 13 20 29.71 1006 30 48 N/A
7:50 pm 19:50 Mostly Cloudy 57 14 55 13 94 94 S 8 13 29.71 1006 30 48 N/A
8:20 pm 20:20 Mostly Cloudy 57 14 55 13 94 94 SSE 8 13 29.71 1006 30 48 N/A
8:50 pm 20:50 Mostly Cloudy with Drizzle 57 14 57 14 100 100 SSE 7 11 29.71 1006 30 48 N/A
9:20 pm 21:20 Mostly Cloudy 57 14 57 14 100 100 SSE 7 11 29.71 1006 4 6 N/A
9:50 pm 21:50 Mostly Cloudy with Drizzle 59 15 59 15 100 100 SSE 9 15 29.68 1005 4 7 N/A

Powered by AerisWeather